Regional Weather Roundup
Issued by NWS

Home | Current Version | Previous Version | Graphics & Text | Print | Product List | Glossary On
Versions: 1 2 3 4 5 6 7 8 9 10 11 12 13 14 15 16 17 18 19 20 21 22 23 24 25 26 27 28 29 30 31 32 33 34 35 36 37 38 39 40 41 42 43 44 45 46 47 48 49 50
000
ASUS43 KLOT 070612
RWRIL

ILLINOIS REGIONAL WEATHER ROUNDUP
NATIONAL WEATHER SERVICE CHICAGO/ROMEOVILLE IL
100 AM CDT THU MAY 07 2015

NOTE: "FAIR" INDICATES FEW OR NO CLOUDS BELOW 12,000 FEET WITH NO
SIGNIFICANT WEATHER AND/OR OBSTRUCTIONS TO VISIBILITY.

* THESE STATIONS ARE NOT UNDER NWS QUALITY CONTROL. THEY ALSO MAY NOT
  REPORT WEATHER SUCH AS PRECIPITATION OR FOG.

ILZ001-002-007-009-015-016-024-070700-
NORTHWEST ILLINOIS

CITY           SKY/WX    TMP DP  RH WIND       PRES   REMARKS
MOLINE         MOCLDY    67  56  67 SE9       29.98F
6HR MIN TEMP:  63; 6HR MAX TEMP:  72;

STERLING*      CLEAR     61  54  77 SE5       30.03S
SAVANNA*       MOCLDY    64  58  82 CALM      30.00S
$$

ILZ003-004-008-010-011-017-018-070700-
NORTH CENTRAL ILLINOIS

CITY           SKY/WX    TMP DP  RH WIND       PRES   REMARKS
ROCKFORD       PTCLDY    62  56  80 SE3       30.05F HAZE
6HR MIN TEMP:  62; 6HR MAX TEMP:  77;

FREEPORT*      CLEAR     58  56  91 SE6       30.04F FOG
ROCHELLE*      PTCLDY    62  57  85 SE10      30.04F HAZE
DE KALB*       CLEAR     60  55  84 SE7       30.07S HAZE
PERU*          CLEAR     66  54  66 S7        30.05S
$$

ILZ005-006-012>014-019>023-070700-
NORTHEAST ILLINOIS

CITY           SKY/WX    TMP DP  RH WIND       PRES   REMARKS
CHICAGO-OHARE  PTCLDY    54  50  86 CALM      30.07R
6HR MIN TEMP:  53; 6HR MAX TEMP:  65;

CHICAGO-MIDWAY CLEAR     58  52  80 SE3       30.07S
6HR MIN TEMP:  58; 6HR MAX TEMP:  65;

AURORA         PTCLDY    61  54  77 E3        30.06R HAZE
6HR MIN TEMP:  61; 6HR MAX TEMP:  78;

LANSING*       CLEAR     57  51  81 CALM      30.08S
JOLIET*        PTCLDY    61  58  89 CALM      30.07R
WAUKEGAN       CLEAR     46  45  96 CALM      30.07S
6HR MIN TEMP:  45; 6HR MAX TEMP:  53;

DUPAGE AIRPORT PTCLDY    60  54  80 CALM      30.06S
6HR MIN TEMP:  60; 6HR MAX TEMP:  72;

KANKAKEE*      CLEAR     65  55  71 CALM      30.08S
WHEELING       CLEAR     50  47  89 CALM      30.09S
6HR MIN TEMP:  50; 6HR MAX TEMP:  59;

MORRIS*        PTCLDY    65  55  69 S3        30.04S
ROMEOVILLE*    PTCLDY    61  55  78 SE3       30.07S
NORTHERLY ISL    N/A     50  47  89 CALM        N/A
$$

LMZ740>746-070700-
SOUTHERN LAKE MICHIGAN

STATION/POSITION SKY/WX   TEMP    WIND        PRES    VSBY  WAVE
                          AIR SEA DIR/SP/G                  HT/PER
                          (F)     (DEG/KT/KT) (MB)    (MI)  (FT/S)
HARRISON CRIB              47     340/  5/  5   N/A
BURNHAM HARBOR             49      CALM  /  3   N/A
CALUMET HARBOR             49      10/  2/  3   N/A
BURNS HARBOR               71     130/  8/ 16 1019.3R
MICHIGAN CITY              70     110/ 10/ 12   N/A
MICHIGAN CITY 6N           63 53  160/ 10/ 12   N/A           1
ST. JOSEPH                 62 52  160/ 10/ 12   N/A           1
$$

ILZ025>027-034>036-040-047-049-050-058-095>099-070700-
WEST-CENTRAL ILLINOIS

CITY           SKY/WX    TMP DP  RH WIND       PRES   REMARKS
QUINCY         MOCLDY    69  52  54 S9        29.98F
GALESBURG*     PTCLDY    67  55  63 SE9       30.01S
MACOMB*        CLEAR     65  55  69 SE7       30.03S
JACKSONVILLE*  CLEAR     72  55  54 SE9       30.03S
PITTSFIELD*    PTCLDY    69  53  55 SE7       30.02S
$$

ILZ028>032-037-038-041>044-048-051>054-059>061-070700-
CENTRAL ILLINOIS

CITY           SKY/WX    TMP DP  RH WIND       PRES   REMARKS
PONTIAC        PTCLDY    62  57  86 CALM      30.07S
BLOOMINGTON    CLEAR     65  55  69 S8        30.08S
DECATUR        CLEAR     65  54  67 S3        30.07R
PEORIA         CLEAR     72  54  53 S8        30.04R
6HR MIN TEMP:  72; 6HR MAX TEMP:  81;

LACON*         CLEAR     65  53  66 CALM      30.03S
LINCOLN*       CLEAR     67  55  63 CALM      30.03S
SPRINGFIELD    CLEAR     71  55  56 S10       30.05R
6HR MIN TEMP:  71; 6HR MAX TEMP:  83;

TAYLORVILLE    MOCLDY    64  54  68 S5        30.06R
$$

ILZ033-039-045-046-055>057-062-063-070700-
EAST-CENTRAL ILLINOIS

CITY           SKY/WX    TMP DP  RH WIND       PRES   REMARKS
CHAMPAIGN      CLEAR     64  51  62 SE7       30.07S
DANVILLE*      CLEAR     66  54  64 CALM      30.06F
RANTOUL*       CLEAR     67  55  64 CALM      30.08S
MATTOON        CLEAR     65  54  67 SE5       30.07S
PARIS*         CLEAR     64  55  70 SE3       30.09S
$$

ILZ079-100>102-070700-
SOUTHWEST ILLINOIS

CITY           SKY/WX    TMP DP  RH WIND       PRES   REMARKS
ALTON          CLEAR     64  57  80 SE7       30.05S
BELLEVILLE     CLEAR     64  58  79 CALM      30.04S
CAHOKIA*       CLEAR     66  55  67 SE6       30.03F
SPARTA*        CLEAR     63  56  78 SE5       30.06F
$$

ILZ064>066-069>071-074>076-080>082-084>086-088>090-092>094-070700-
SOUTH-CENTRAL ILLINOIS

CITY           SKY/WX    TMP DP  RH WIND       PRES   REMARKS
CARBONDALE     CLEAR     61  55  81 CALM      30.06S
6HR MIN TEMP:  61; 6HR MAX TEMP:  81;

CAIRO*         CLEAR     61  53  76 CALM      30.06S
EFFINGHAM*     CLEAR     64  53  65 E3        30.09S
MARION         CLEAR     66  57  72 CALM      30.08R
MT. VERNON     CLEAR    N/A N/A N/A CALM      30.08R
CENTRALIA*     CLEAR     63  55  74 S5        30.07R
SALEM*         CLEAR     67  57  69 CALM      30.08R
METROPOLIS*    CLEAR     61  61  99 CALM      30.07S
$$

ILZ067-068-072-073-078-083-087-091-070700-
SOUTHEAST ILLINOIS

CITY           SKY/WX    TMP DP  RH WIND       PRES   REMARKS
LAWRENCEVILLE  CLEAR     66  57  72 CALM      30.08S
FLORA*         CLEAR     62  55  78 CALM      30.08R
FAIRFIELD*     CLEAR     64  59  84 CALM      30.07R
HARRISBURG*    CLEAR     63  59  86 CALM      30.09R
ROBINSON*      CLEAR     62  56  78 CALM      30.09S
CARMI*         CLEAR     62  54  73 CALM      30.07S
$$

ABBREVIATIONS USED IN REMARKS
   TC - TEMPERATURE IN CELSIUS
  WCI - WIND CHILL INDEX
   HX - HEAT INDEX
  VSB - VISIBILITY
$$




USA.gov is the U.S. government's official web portal to all federal, state and local government web resources and services.